CSN3422 ZUCK-ZGHA

Flight info

Callsign CSN3422
Flight time 1h 0m
Altitude 22600
Route OLNER2X OLNER B213 KIGUM W240 ENH W139 DYG W138 RUKLI RUK2X
Aircraft A320/M-SDE3FGHIRWY/LB1

Departure

Time 2026-04-21 10:18
Airport Chongqing Jiangbei International Airport (ZUCK)

Arrival

Time 2026-04-21 11:18
Airport Changsha Huanghua International Airport (ZGHA)
Time Latitude Longitude Altitude Speed Heading
2026-04-21 10:10 29.71108 106.64694 1356 ft 0 kts 129°
2026-04-21 10:10 29.71114 106.64687 1358 ft 4 kts 131°
2026-04-21 10:11 29.71133 106.64665 1358 ft 4 kts 144°
2026-04-21 10:11 29.71156 106.64652 1356 ft 4 kts 180°
2026-04-21 10:11 29.71170 106.64655 1356 ft 0 kts 220°
2026-04-21 10:14 29.71142 106.64629 1356 ft 8 kts 220°
2026-04-21 10:14 29.71104 106.64592 1356 ft 6 kts 220°
2026-04-21 10:14 29.71069 106.64569 1358 ft 8 kts 201°
2026-04-21 10:14 29.71011 106.64512 1359 ft 16 kts 258°
2026-04-21 10:15 29.70931 106.64429 1357 ft 16 kts 197°
2026-04-21 10:15 29.70826 106.64395 1359 ft 15 kts 196°
2026-04-21 10:15 29.70729 106.64363 1357 ft 14 kts 196°
2026-04-21 10:15 29.70639 106.64332 1357 ft 13 kts 197°
2026-04-21 10:16 29.70546 106.64300 1358 ft 16 kts 196°
2026-04-21 10:16 29.70443 106.64242 1359 ft 16 kts 244°
2026-04-21 10:16 29.70467 106.64125 1362 ft 14 kts 290°
2026-04-21 10:16 29.70532 106.64083 1360 ft 12 kts 16°
2026-04-21 10:17 29.70620 106.64116 1360 ft 24 kts 17°
2026-04-21 10:17 29.71016 106.64251 1358 ft 92 kts 16°
2026-04-21 10:17 29.71802 106.64525 1356 ft 142 kts 17°
2026-04-21 10:17 29.72863 106.64890 1526 ft 169 kts 16°
2026-04-21 10:18 29.73999 106.65293 2098 ft 171 kts 15°
2026-04-21 10:18 29.75125 106.65681 2671 ft 174 kts 17°
2026-04-21 10:18 29.76354 106.66102 2973 ft 196 kts 17°
2026-04-21 10:18 29.77735 106.66577 3273 ft 218 kts 17°
2026-04-21 10:19 29.79251 106.67099 3643 ft 239 kts 17°
2026-04-21 10:19 29.80925 106.67677 4114 ft 262 kts 18°
2026-04-21 10:19 29.82702 106.68291 4928 ft 270 kts 17°
2026-04-21 10:19 29.84519 106.68915 5830 ft 275 kts 15°
2026-04-21 10:20 29.86360 106.69549 6714 ft 278 kts 15°
2026-04-21 10:20 29.88233 106.70195 7540 ft 284 kts 15°
2026-04-21 10:20 29.90117 106.70847 8366 ft 289 kts 14°
2026-04-21 10:20 29.91991 106.71752 9183 ft 298 kts 30°
2026-04-21 10:21 29.93540 106.73393 9968 ft 309 kts 52°
2026-04-21 10:21 29.94542 106.75663 10355 ft 332 kts 74°
2026-04-21 10:21 29.94755 106.78403 10541 ft 357 kts 91°
2026-04-21 10:21 29.94701 106.81355 10678 ft 380 kts 91°
2026-04-21 10:22 29.94644 106.84484 10799 ft 401 kts 91°
2026-04-21 10:22 29.94589 106.87775 10959 ft 419 kts 90°
2026-04-21 10:22 29.94539 106.91165 11416 ft 426 kts 90°
2026-04-21 10:22 29.94494 106.94555 11973 ft 431 kts 90°
2026-04-21 10:23 29.94456 106.98024 12583 ft 435 kts 90°
2026-04-21 10:23 29.94418 107.01522 13180 ft 438 kts 89°
2026-04-21 10:23 29.94377 107.05046 13732 ft 442 kts 90°
2026-04-21 10:23 29.94332 107.08610 14179 ft 447 kts 90°
2026-04-21 10:24 29.94284 107.12204 14649 ft 450 kts 90°
2026-04-21 10:24 29.94231 107.15827 15118 ft 453 kts 90°
2026-04-21 10:24 29.94175 107.19475 15572 ft 457 kts 90°
2026-04-21 10:24 29.94120 107.23098 16010 ft 460 kts 90°
2026-04-21 10:25 29.94062 107.26793 16435 ft 463 kts 90°
2026-04-21 10:25 29.94006 107.30515 16856 ft 466 kts 90°
2026-04-21 10:25 29.93946 107.34261 17268 ft 469 kts 90°
2026-04-21 10:25 29.93886 107.38024 17673 ft 471 kts 90°
2026-04-21 10:26 29.93826 107.41818 18042 ft 476 kts 91°
2026-04-21 10:26 29.93766 107.45651 18324 ft 480 kts 91°
2026-04-21 10:26 29.93703 107.49512 18637 ft 483 kts 91°
2026-04-21 10:26 29.93637 107.53395 18956 ft 486 kts 91°
2026-04-21 10:27 29.93570 107.57252 19289 ft 488 kts 91°
2026-04-21 10:27 29.93500 107.61175 19614 ft 491 kts 91°
2026-04-21 10:27 29.93429 107.65118 19941 ft 493 kts 91°
2026-04-21 10:27 29.93357 107.69080 20258 ft 495 kts 91°
2026-04-21 10:28 29.93283 107.73061 20548 ft 498 kts 91°
2026-04-21 10:28 29.93204 107.77059 20823 ft 501 kts 91°
2026-04-21 10:28 29.93299 107.81086 21054 ft 504 kts 84°
2026-04-21 10:28 29.93882 107.85076 21308 ft 506 kts 75°
2026-04-21 10:29 29.94854 107.88976 21572 ft 507 kts 72°
2026-04-21 10:29 29.95842 107.92829 21833 ft 509 kts 72°
2026-04-21 10:29 29.96836 107.96754 22074 ft 511 kts 73°
2026-04-21 10:29 29.97827 108.00698 22299 ft 513 kts 73°
2026-04-21 10:30 29.98818 108.04657 22467 ft 514 kts 73°
2026-04-21 10:30 29.99807 108.08620 22505 ft 514 kts 73°
2026-04-21 10:30 30.00797 108.12585 22495 ft 514 kts 73°
2026-04-21 10:30 30.01788 108.16542 22504 ft 514 kts 73°
2026-04-21 10:31 30.02784 108.20504 22501 ft 514 kts 73°
2026-04-21 10:31 30.03765 108.24407 22498 ft 514 kts 73°
2026-04-21 10:31 30.04760 108.28367 22499 ft 514 kts 73°
2026-04-21 10:31 30.05752 108.32329 22500 ft 513 kts 73°
2026-04-21 10:32 30.06739 108.36288 22502 ft 513 kts 73°
2026-04-21 10:32 30.07725 108.40246 22498 ft 513 kts 73°
2026-04-21 10:32 30.08709 108.44204 22493 ft 513 kts 73°
2026-04-21 10:32 30.09691 108.48167 22484 ft 513 kts 73°
2026-04-21 10:33 30.10660 108.52079 22483 ft 514 kts 73°
2026-04-21 10:33 30.11642 108.56046 22481 ft 514 kts 73°
2026-04-21 10:33 30.12676 108.59999 22486 ft 514 kts 71°
2026-04-21 10:33 30.13792 108.63922 22486 ft 514 kts 70°
2026-04-21 10:34 30.14963 108.67826 22486 ft 514 kts 69°
2026-04-21 10:34 30.16153 108.71715 22504 ft 513 kts 69°
2026-04-21 10:34 30.17338 108.75605 22502 ft 513 kts 69°
2026-04-21 10:34 30.18504 108.79503 22501 ft 513 kts 70°
2026-04-21 10:35 30.19652 108.83408 22496 ft 514 kts 70°
2026-04-21 10:35 30.20770 108.87273 22492 ft 514 kts 70°
2026-04-21 10:35 30.21865 108.91203 22488 ft 514 kts 73°
2026-04-21 10:35 30.22574 108.95254 22486 ft 515 kts 82°
2026-04-21 10:36 30.22981 108.99363 22489 ft 515 kts 83°
2026-04-21 10:36 30.23400 109.03474 22491 ft 515 kts 83°
2026-04-21 10:36 30.23833 109.07586 22491 ft 515 kts 83°
2026-04-21 10:36 30.24269 109.11697 22490 ft 515 kts 83°
2026-04-21 10:37 30.24701 109.15808 22487 ft 515 kts 83°
2026-04-21 10:37 30.25121 109.19868 22487 ft 516 kts 83°
2026-04-21 10:37 30.25541 109.23990 22488 ft 516 kts 83°
2026-04-21 10:37 30.25956 109.28108 22496 ft 516 kts 83°
2026-04-21 10:38 30.26370 109.32228 22496 ft 516 kts 83°
2026-04-21 10:38 30.26785 109.36350 22495 ft 516 kts 83°
2026-04-21 10:38 30.27199 109.40473 22494 ft 516 kts 83°
2026-04-21 10:38 30.27610 109.44591 22496 ft 515 kts 83°
2026-04-21 10:39 30.27895 109.48720 22492 ft 516 kts 90°
2026-04-21 10:39 30.27551 109.52839 22494 ft 514 kts 102°
2026-04-21 10:39 30.26553 109.56730 22494 ft 511 kts 114°
2026-04-21 10:39 30.24922 109.60361 22495 ft 507 kts 126°
2026-04-21 10:40 30.22757 109.63543 22499 ft 502 kts 137°
2026-04-21 10:40 30.20147 109.66180 22499 ft 496 kts 148°
2026-04-21 10:40 30.17229 109.68280 22499 ft 493 kts 153°
2026-04-21 10:40 30.14270 109.70284 22496 ft 493 kts 154°
2026-04-21 10:41 30.11304 109.72284 22500 ft 494 kts 153°
2026-04-21 10:41 30.08336 109.74284 22500 ft 494 kts 153°
2026-04-21 10:41 30.05370 109.76283 22499 ft 494 kts 153°
2026-04-21 10:41 30.02441 109.78258 22498 ft 494 kts 153°
2026-04-21 10:42 29.99476 109.80258 22493 ft 494 kts 153°
2026-04-21 10:42 29.96512 109.82259 22479 ft 494 kts 154°
2026-04-21 10:42 29.93546 109.84259 22486 ft 494 kts 154°
2026-04-21 10:42 29.90582 109.86255 22489 ft 494 kts 154°
2026-04-21 10:43 29.87612 109.88256 22499 ft 494 kts 153°
2026-04-21 10:43 29.84646 109.90254 22496 ft 494 kts 154°
2026-04-21 10:43 29.81720 109.92224 22504 ft 494 kts 154°
2026-04-21 10:43 29.78754 109.94217 22494 ft 494 kts 154°
2026-04-21 10:44 29.75784 109.96206 22512 ft 494 kts 154°
2026-04-21 10:44 29.72814 109.98196 22517 ft 494 kts 153°
2026-04-21 10:44 29.69841 110.00186 22510 ft 494 kts 153°
2026-04-21 10:44 29.66874 110.02173 22512 ft 494 kts 154°
2026-04-21 10:45 29.63903 110.04160 22508 ft 493 kts 154°
2026-04-21 10:45 29.60936 110.06141 22520 ft 493 kts 154°
2026-04-21 10:45 29.57970 110.08122 22523 ft 493 kts 154°
2026-04-21 10:45 29.55038 110.10079 22519 ft 494 kts 154°
2026-04-21 10:46 29.52068 110.12060 22516 ft 494 kts 154°
2026-04-21 10:46 29.49101 110.14040 22512 ft 493 kts 154°
2026-04-21 10:46 29.46133 110.16021 22522 ft 493 kts 154°
2026-04-21 10:46 29.43170 110.18000 22511 ft 493 kts 154°
2026-04-21 10:47 29.40206 110.19978 22525 ft 493 kts 154°
2026-04-21 10:47 29.37242 110.21957 22504 ft 493 kts 154°
2026-04-21 10:47 29.34276 110.23933 22511 ft 493 kts 154°
2026-04-21 10:47 29.31354 110.25880 22524 ft 493 kts 154°
2026-04-21 10:48 29.28390 110.27854 22523 ft 493 kts 154°
2026-04-21 10:48 29.25422 110.29826 22526 ft 493 kts 154°
2026-04-21 10:48 29.22454 110.31796 22524 ft 493 kts 154°
2026-04-21 10:48 29.19488 110.33764 22527 ft 493 kts 154°
2026-04-21 10:49 29.16526 110.35729 22531 ft 493 kts 154°
2026-04-21 10:49 29.13564 110.37708 22532 ft 494 kts 152°
2026-04-21 10:49 29.10809 110.39993 22529 ft 499 kts 143°
2026-04-21 10:49 29.08333 110.42787 22531 ft 503 kts 134°
2026-04-21 10:50 29.06238 110.46011 22518 ft 508 kts 125°
2026-04-21 10:50 29.04340 110.49415 22523 ft 508 kts 125°
2026-04-21 10:50 29.02435 110.52810 22530 ft 508 kts 125°
2026-04-21 10:50 29.00520 110.56206 22529 ft 508 kts 126°
2026-04-21 10:51 28.98605 110.59594 22530 ft 508 kts 126°
2026-04-21 10:51 28.96686 110.62987 22537 ft 508 kts 126°
2026-04-21 10:51 28.94793 110.66335 22538 ft 509 kts 126°
2026-04-21 10:51 28.92876 110.69726 22540 ft 509 kts 126°
2026-04-21 10:52 28.90960 110.73119 22539 ft 509 kts 125°
2026-04-21 10:52 28.89044 110.76516 22538 ft 509 kts 125°
2026-04-21 10:52 28.87126 110.79908 22538 ft 509 kts 126°
2026-04-21 10:52 28.85203 110.83298 22535 ft 509 kts 126°
2026-04-21 10:53 28.83279 110.86687 22539 ft 509 kts 126°
2026-04-21 10:53 28.81378 110.90034 22542 ft 510 kts 126°
2026-04-21 10:53 28.79453 110.93424 22542 ft 510 kts 126°
2026-04-21 10:53 28.77528 110.96816 22544 ft 510 kts 126°
2026-04-21 10:54 28.75602 111.00205 22544 ft 510 kts 126°
2026-04-21 10:54 28.73673 111.03597 22544 ft 510 kts 126°
2026-04-21 10:54 28.71746 111.06983 22542 ft 510 kts 126°
2026-04-21 10:54 28.69819 111.10366 22270 ft 509 kts 126°
2026-04-21 10:55 28.67891 111.13747 21992 ft 508 kts 126°
2026-04-21 10:55 28.65971 111.17114 21742 ft 506 kts 126°
2026-04-21 10:55 28.64085 111.20425 21497 ft 504 kts 126°
2026-04-21 10:55 28.62189 111.23770 21253 ft 502 kts 126°
2026-04-21 10:56 28.60306 111.27109 21012 ft 500 kts 126°
2026-04-21 10:56 28.58434 111.30432 20772 ft 498 kts 126°
2026-04-21 10:56 28.56570 111.33737 20527 ft 496 kts 126°
2026-04-21 10:56 28.54711 111.37027 20289 ft 493 kts 126°
2026-04-21 10:57 28.52856 111.40301 20054 ft 491 kts 126°
2026-04-21 10:57 28.51011 111.43554 19812 ft 488 kts 126°
2026-04-21 10:57 28.49195 111.46750 19590 ft 487 kts 126°
2026-04-21 10:57 28.47361 111.49973 19358 ft 485 kts 126°
2026-04-21 10:58 28.45534 111.53183 19128 ft 482 kts 126°
2026-04-21 10:58 28.43717 111.56373 18895 ft 480 kts 126°
2026-04-21 10:58 28.41906 111.59555 18670 ft 479 kts 126°
2026-04-21 10:58 28.40102 111.62727 18448 ft 477 kts 126°
2026-04-21 10:59 28.38308 111.65882 18221 ft 474 kts 126°
2026-04-21 10:59 28.36520 111.69022 17962 ft 472 kts 126°
2026-04-21 10:59 28.34762 111.72106 17709 ft 471 kts 126°
2026-04-21 10:59 28.32984 111.75218 17454 ft 469 kts 126°
2026-04-21 11:00 28.31210 111.78320 17200 ft 467 kts 126°
2026-04-21 11:00 28.29445 111.81402 16911 ft 465 kts 126°
2026-04-21 11:00 28.27683 111.84475 16669 ft 464 kts 126°
2026-04-21 11:00 28.25927 111.87534 16423 ft 462 kts 127°
2026-04-21 11:01 28.24175 111.90582 16179 ft 461 kts 126°
2026-04-21 11:01 28.22429 111.93619 15920 ft 459 kts 126°
2026-04-21 11:01 28.20714 111.96606 15688 ft 457 kts 126°
2026-04-21 11:02 28.17253 112.02621 15210 ft 454 kts 127°
2026-04-21 11:02 28.15525 112.05612 14975 ft 453 kts 127°
2026-04-21 11:02 28.13803 112.08591 14733 ft 451 kts 126°
2026-04-21 11:02 28.12094 112.11566 14506 ft 450 kts 126°
2026-04-21 11:03 28.10398 112.14537 14262 ft 448 kts 126°
2026-04-21 11:03 28.08714 112.17500 14040 ft 447 kts 126°
2026-04-21 11:03 28.07036 112.20453 13804 ft 445 kts 126°
2026-04-21 11:03 28.05380 112.23347 13554 ft 444 kts 127°
2026-04-21 11:04 28.03688 112.26261 13295 ft 442 kts 127°
2026-04-21 11:04 28.01994 112.29152 13039 ft 440 kts 127°
2026-04-21 11:04 28.00427 112.32127 12780 ft 441 kts 120°
2026-04-21 11:04 27.99257 112.35340 12539 ft 443 kts 110°
2026-04-21 11:05 27.98523 112.38724 12288 ft 444 kts 101°
2026-04-21 11:05 27.98215 112.42206 12042 ft 445 kts 95°
2026-04-21 11:05 27.98007 112.45690 11797 ft 443 kts 96°
2026-04-21 11:05 27.97796 112.49111 11554 ft 441 kts 96°
2026-04-21 11:06 27.97577 112.52568 11309 ft 440 kts 96°
2026-04-21 11:06 27.97357 112.56014 11071 ft 438 kts 96°
2026-04-21 11:06 27.97139 112.59447 10829 ft 437 kts 96°
2026-04-21 11:06 27.96923 112.62875 10594 ft 436 kts 96°
2026-04-21 11:07 27.96710 112.66268 10356 ft 425 kts 96°
2026-04-21 11:07 27.96510 112.69532 10126 ft 407 kts 96°
2026-04-21 11:07 27.96317 112.72668 9892 ft 392 kts 96°
2026-04-21 11:07 27.96130 112.75686 9764 ft 376 kts 96°
2026-04-21 11:08 27.95951 112.78530 9677 ft 361 kts 97°
2026-04-21 11:08 27.95774 112.81311 9547 ft 348 kts 97°
2026-04-21 11:08 27.95598 112.83999 9419 ft 337 kts 97°
2026-04-21 11:08 27.95426 112.86595 9272 ft 327 kts 97°
2026-04-21 11:09 27.95259 112.89141 8988 ft 323 kts 97°
2026-04-21 11:09 27.95167 112.91669 8711 ft 320 kts 90°
2026-04-21 11:09 27.95238 112.94151 8568 ft 311 kts 91°
2026-04-21 11:09 27.95299 112.96562 8442 ft 302 kts 91°
2026-04-21 11:10 27.95354 112.98901 8312 ft 293 kts 91°
2026-04-21 11:10 27.95382 113.01173 8191 ft 284 kts 97°
2026-04-21 11:10 27.95135 113.03314 8023 ft 276 kts 103°
2026-04-21 11:10 27.94833 113.05460 7701 ft 277 kts 104°
2026-04-21 11:11 27.94528 113.07624 7346 ft 280 kts 103°
2026-04-21 11:11 27.94225 113.09811 6981 ft 283 kts 104°
2026-04-21 11:11 27.93919 113.12020 6607 ft 285 kts 103°
2026-04-21 11:11 27.93850 113.14288 6221 ft 294 kts 90°
2026-04-21 11:12 27.93965 113.16599 5784 ft 292 kts 90°
2026-04-21 11:12 27.94084 113.18859 5370 ft 283 kts 91°
2026-04-21 11:12 27.94223 113.21019 5007 ft 276 kts 85°
2026-04-21 11:12 27.94988 113.22970 4635 ft 274 kts 48°
2026-04-21 11:13 27.96551 113.24064 4231 ft 261 kts
2026-04-21 11:13 27.98286 113.23949 3901 ft 245 kts 339°
2026-04-21 11:13 27.99900 113.23492 3584 ft 234 kts 351°
2026-04-21 11:13 28.01486 113.23397 3294 ft 222 kts 356°
2026-04-21 11:14 28.02998 113.23332 2997 ft 212 kts 355°
2026-04-21 11:14 28.04402 113.23253 2760 ft 194 kts 354°
2026-04-21 11:14 28.05683 113.23175 2479 ft 178 kts 355°
2026-04-21 11:14 28.06833 113.23105 2287 ft 153 kts 356°
2026-04-21 11:15 28.07841 113.23043 2067 ft 138 kts 356°
2026-04-21 11:15 28.08780 113.22985 1880 ft 133 kts 355°
2026-04-21 11:15 28.09700 113.22929 1708 ft 131 kts 355°
2026-04-21 11:15 28.10606 113.22873 1534 ft 130 kts 355°
2026-04-21 11:16 28.11509 113.22818 1350 ft 130 kts 354°
2026-04-21 11:16 28.12406 113.22762 1173 ft 128 kts 354°
2026-04-21 11:16 28.13285 113.22707 1050 ft 128 kts 354°
2026-04-21 11:16 28.14183 113.22658 854 ft 130 kts 355°
2026-04-21 11:17 28.15088 113.22602 662 ft 130 kts 354°
2026-04-21 11:17 28.15995 113.22552 499 ft 131 kts 354°
2026-04-21 11:17 28.16905 113.22494 334 ft 131 kts 354°
2026-04-21 11:17 28.17813 113.22429 220 ft 126 kts 354°
2026-04-21 11:18 28.18503 113.22381 218 ft 65 kts 358°
2026-04-21 11:18 28.18875 113.22360 220 ft 52 kts 357°
2026-04-21 11:18 28.19138 113.22323 215 ft 27 kts 342°
2026-04-21 11:18 28.19300 113.22228 214 ft 26 kts 329°
2026-04-21 11:19 28.19453 113.22140 214 ft 24 kts 351°
2026-04-21 11:19 28.19626 113.22128 214 ft 26 kts 357°
2026-04-21 11:19 28.19814 113.22116 215 ft 28 kts 356°
2026-04-21 11:19 28.19998 113.22105 215 ft 26 kts 357°
2026-04-21 11:20 28.20075 113.22028 215 ft 18 kts 266°
2026-04-21 11:20 28.20069 113.21912 219 ft 16 kts 266°
2026-04-21 11:20 28.20062 113.21791 216 ft 14 kts 265°
2026-04-21 11:20 28.20056 113.21675 219 ft 15 kts 268°
2026-04-21 11:21 28.19995 113.21625 214 ft 12 kts 177°
2026-04-21 11:21 28.19915 113.21631 217 ft 12 kts 176°
2026-04-21 11:21 28.19836 113.21636 218 ft 11 kts 177°
2026-04-21 11:21 28.19790 113.21610 214 ft 6 kts 261°
2026-04-21 11:22 28.19788 113.21594 214 ft 0 kts 261°
2026-04-21 11:22 28.19789 113.21585 214 ft 5 kts 271°
2026-04-21 11:22 28.19788 113.21550 214 ft 0 kts 268°